Conroe, TX

5:21 AM CDT on April 19, 2018 (GMT -0500)
Montgomery County

Weather History for KCXO - November, 2012

Change the Weather History Date:

Thursday, November 22, 2012

  Actual Average Record
Temperature  
Mean Temperature 58 °F -  
Max Temperature 75 °F 67 °F 81 °F (2003)
Min Temperature 42 °F 44 °F 32 °F (2005)
Degree Days  
Heating Degree Days 6    
Growing Degree Days 8 (Base 50)    
Moisture  
Dew Point 51 °F    
Average Humidity 83    
Maximum Humidity 100    
Minimum Humidity 45    
Precipitation  
Precipitation 0.00 in - - ()
Sea Level Pressure  
Sea Level Pressure 30.17 in    
Wind  
Wind Speed 2 mph (SSE)    
Max Wind Speed 13 mph    
Max Gust Speed 21 mph    
Visibility 6 miles    
Events Fog    
Averages and records for this station are not official NWS values.
T = Trace of Precipitation, MM = Missing Value Source: NWS Daily Summary

Daily Weather History Graph

Daily Weather History Graph

Search for Another Location

Airport or City:

Trip Planner

Search our weather history database for the weather conditions in past years. The results will help you decide how hot, cold, wet, or windy it might be!

Date:

Astronomy

Nov. 22, 2012 Rise Set
Actual Time 6:53 AM CST 5:21 PM CST
Civil Twilight 6:27 AM CST 5:47 PM CST
Nautical Twilight 5:58 AM CST 6:17 PM CST
Astronomical Twilight 5:29 AM CST 6:45 PM CST
Moon 1:49 PM CST (11/22) 1:35 AM CST (11/22)
Length of Visible Light 11h 19m
Length of Day
10h 28m
Waxing Gibbous, 71% of the Moon is Illuminated
Nov 22
Waxing Gibbous
Nov 28
Full
Dec 6
Last Quarter
Dec 13
New
Dec 19
First Quarter

Hourly Weather History & Observations

Time (CST) Temp. Dew Point Humidity Pressure Visibility Wind Dir Wind Speed Gust Speed Precip Events Conditions
12:53 AM 45.0 °F 44.1 °F 97% 30.18 in 10.0 mi Calm Calm - N/A   Clear
1:53 AM 44.1 °F 43.0 °F 96% 30.17 in 8.0 mi Calm Calm - N/A   Clear
2:53 AM 45.0 °F 45.0 °F 100% 30.16 in 8.0 mi Calm Calm - N/A   Clear
3:53 AM 45.0 °F 44.1 °F 97% 30.16 in 8.0 mi Calm Calm - N/A   Clear
4:53 AM 46.0 °F 45.0 °F 96% 30.15 in 8.0 mi Calm Calm - N/A   Clear
5:53 AM 44.1 °F 43.0 °F 96% 30.18 in 8.0 mi Calm Calm - N/A   Clear
6:04 AM 44.6 °F 42.8 °F 93% 30.18 in 7.0 mi Calm Calm - N/A   Partly Cloudy
6:20 AM 44.6 °F 42.8 °F 93% 30.19 in 6.0 mi Calm Calm - N/A   Mostly Cloudy
6:36 AM 44.6 °F 42.8 °F 93% 30.19 in 6.0 mi Calm Calm - N/A   Overcast
6:53 AM 43.0 °F 43.0 °F 100% 30.19 in 2.5 mi Calm Calm - N/A   Overcast
6:55 AM 42.8 °F 42.8 °F 100% 30.19 in 0.8 mi Calm Calm - N/A   Mist
7:31 AM 44.6 °F 44.6 °F 100% 30.20 in 0.1 mi Calm Calm - N/A Fog Fog
7:53 AM 46.9 °F 46.9 °F 100% 30.20 in 0.1 mi Calm Calm - N/A Fog Fog
8:34 AM 51.8 °F 51.8 °F 100% 30.21 in 0.2 mi Calm Calm - N/A Fog Fog
8:53 AM 53.1 °F 53.1 °F 100% 30.22 in 0.2 mi Calm Calm - N/A Fog Fog
9:00 AM 53.6 °F 53.6 °F 100% 30.22 in 0.5 mi Calm Calm - N/A Fog Fog
9:15 AM 55.4 °F 55.4 °F 100% 30.22 in 0.5 mi Calm Calm - N/A Fog Fog
9:23 AM 57.2 °F 57.2 °F 100% 30.22 in 1.5 mi Calm Calm - N/A Fog Fog
9:32 AM 59.0 °F 57.2 °F 94% 30.22 in 3.0 mi Calm Calm - N/A   Clear
9:37 AM 60.8 °F 59.0 °F 94% 30.22 in 5.0 mi Calm Calm - N/A   Clear
9:53 AM 63.0 °F 59.0 °F 87% 30.22 in 7.0 mi SSE 3.5 mph - N/A   Clear
10:53 AM 71.1 °F 57.9 °F 63% 30.21 in 10.0 mi South 8.1 mph - N/A   Partly Cloudy
11:53 AM 73.9 °F 55.9 °F 53% 30.18 in 10.0 mi South 11.5 mph 16.1 mph N/A   Mostly Cloudy
12:53 PM 73.9 °F 54.0 °F 50% 30.15 in 10.0 mi SSW 12.7 mph 18.4 mph N/A   Partly Cloudy
1:53 PM 73.9 °F 53.1 °F 48% 30.12 in 10.0 mi South 10.4 mph 20.7 mph N/A   Clear
2:32 PM 75.2 °F 53.6 °F 47% 30.12 in 1.8 mi Variable 4.6 mph - N/A   Haze
2:35 PM 75.2 °F 53.6 °F 47% 30.12 in 10.0 mi South 8.1 mph - N/A   Partly Cloudy
2:53 PM 75.9 °F 53.1 °F 45% 30.11 in 10.0 mi SSW 10.4 mph - N/A   Partly Cloudy
3:53 PM 75.0 °F 53.1 °F 46% 30.10 in 10.0 mi South 10.4 mph - N/A   Clear
4:53 PM 71.1 °F 57.0 °F 61% 30.10 in 10.0 mi SSE 9.2 mph - N/A   Clear
5:53 PM 68.0 °F 55.9 °F 65% 30.11 in 10.0 mi SE 8.1 mph - N/A   Clear
6:53 PM 64.0 °F 55.9 °F 75% 30.13 in 10.0 mi SE 5.8 mph - N/A   Clear
7:53 PM 63.0 °F 55.9 °F 78% 30.14 in 10.0 mi SE 5.8 mph - N/A   Clear
8:53 PM 60.1 °F 55.9 °F 86% 30.16 in 10.0 mi SE 5.8 mph - N/A   Clear
9:53 PM 55.9 °F 54.0 °F 93% 30.16 in 10.0 mi Calm Calm - N/A   Clear
10:53 PM 53.1 °F 53.1 °F 100% 30.17 in 8.0 mi Calm Calm - N/A   Clear
11:53 PM 53.1 °F 52.0 °F 96% 30.16 in 7.0 mi Calm Calm - N/A   Clear